Location: Crescent
(42.8242°N, 73.7329°W)
Time: 15:19:22
(UTC+00:00)

A-11 Canister half - Pass Details

Date: 24 February 2026
Orbit: 1525 x 1683 km, 47.3° (Epoch: 9 March)

Event Time Altitude Azimuth Distance (km) Brightness Sun altitude
Rises 03:26:14 0° 293° (WNW) 4,677 12.1 -49.9°
Reaches altitude 10° 03:29:54 10° 281° (W) 3,695 11.3 -50.3°
Enters shadow 03:32:53 19° 265° (W) 3,064 10.7 -50.7°
